Showing default

CYGFM04, 41885

Orbit data source: Space-Track

CYGFM04, 41885 is an American payload satellite in LEO that was launched on Thu, 15 Dec 2016 UTC via a PEGASUS XL launch vehicle from the Pegasus Launch, Eastern Range Air Space (ERAS). Payload-class satellites include a variety of spacecraft equipped with specific instruments for various scientific and technological missions. These include communications satellites like Starlink; space stations such as the ISS; scientific satellites like the Hubble; Earth observation satellites from companies like Planet Labs, Umbra, and HawkEye 360; GPS; miniature CubeSats for education and research; and military/defense satellites.

Loading next visibility...
Identifier
41885, 2016-078B
Orbit
LEO
Country
Flag of USUS
Related business
Manufacturer
SST-US
Mission
Extended mission Civil Earth Obs Sci
Bus & Motor
CYGNSS, Unknown motor
Mass
29 kg wet, 29 kg dry
Launch date (UTC)
2016-12-15 (9 years ago)
Launch vehicle
PEGASUS XL
Launch site
Pegasus Launch, Eastern Range Air Space (ERAS)
Object type
Payload
Rocket body
Debris
Shape & HBR
Half Hex Cyl + 2 Pan, 2.5 m
Radar Cross Section
0.450 m², Medium (>0.1 m² and < 1m²)

Expand to show TLE details & history
Last TLE update: 5 hours ago

TLE from 5 hours ago
0 CYGFM04
1 41885U 16078B   26034.13080705  .00025608  00000-0  39391-3 0  9996
2 41885  34.9343  37.4619 0006441 328.9980  31.0362 15.53208175508081
Epoch: 2026-02-03T03:08Z
TLE epoch observation values (Epoch: 2026-02-03T03:08:21.729Z)
Latitude
-0.00001°
Longitude
-142.94481°
Altitude
402.509 km
Speed
7.674 km/s
True Right ascension
02h 29m 50s
True Declination
0° 00' 00"
Sunlit
Object was in daylight at epoch
Visualization orbit readout
Latitude
Unknown
Longitude
Unknown
Altitude
Unknown
Speed
Unknown
Apparent Right ascension
Unknown
Apparent Declination
Unknown
Sunlit
N/A
Visualization observer readout
Local Sidereal Time
09:51:36
Azimuth
Unknown
Elevation
Unknown
Doppler factor
Unknown
Orbital elements
Apogee altitude
415.042 km
Perigee altitude
406.297 km
Semi-major axis
6,788.807 km
Eccentricity
0.00064
Inclination
34.9343°
RAAN
37.4619°
Arg. of periapsis
328.998°
True anomaly
31.07428°
Mean anomaly
31.0362°
Eccentric anomaly
31.05524°
Mean motion
3.88019 °/min
Orbital period
92.78 mins
BSTAR
0.00039391
Loading maneuver chart data...
Computing Atmospheric mass density...
Loading historical data...
Loading historical data...
Loading historical data...
Loading historical data...
Loading historical data...
Loading historical data...
Loading historical data...

Documentation

Showing up to 5 results
|